Mason City, IA

9:23 AM CDT on May 29, 2017 (GMT -0500)
Mason City Municipal

Weather History for KMCW - September, 2013

Change the Weather History Date:

Sunday, September 15, 2013

  Actual Average Record
Temperature  
Mean Temperature 58 °F 61 °F  
Max Temperature 65 °F 74 °F 95 °F (1939)
Min Temperature 51 °F 49 °F 26 °F (2011)
Degree Days  
Heating Degree Days 7 5  
Month to date heating degree days 36 53  
Since 1 July heating degree days 74 89  
Cooling Degree Days 0 2  
Month to date cooling degree days 92 39  
Year to date cooling degree days 684 595  
Growing Degree Days 8 (Base 50)    
Moisture  
Dew Point 54 °F    
Average Humidity 84    
Maximum Humidity 100    
Minimum Humidity 67    
Precipitation  
Precipitation 0.26 in 0.11 in 2.86 in (1936)
Month to date precipitation 0.66 1.69  
Year to date precipitation 34.01 28.05  
Snow  
Snow 0.00 in 0.00 in 0.00 in (2002)
Month to date snowfall 0.0 0.0  
Since 1 July snowfall 0.0 0.0  
Since 1 September snowfall 0.0 0.0  
Snow Depth 0.00 in    
Sea Level Pressure  
Sea Level Pressure 30.04 in    
Wind  
Wind Speed 10 mph (NNE)    
Max Wind Speed 22 mph    
Max Gust Speed 28 mph    
Visibility 9 miles    
Events Rain    
T = Trace of Precipitation, MM = Missing Value Source: NWS Daily Summary

Daily Weather History Graph

Daily Weather History Graph

Search for Another Location

Airport or City:

Trip Planner

Search our weather history database for the weather conditions in past years. The results will help you decide how hot, cold, wet, or windy it might be!

Date:

Astronomy

Sep. 15, 2013 Rise Set
Actual Time 6:53 AM CDT 7:22 PM CDT
Civil Twilight 6:24 AM CDT 7:51 PM CDT
Nautical Twilight 5:50 AM CDT 8:25 PM CDT
Astronomical Twilight 5:16 AM CDT 8:59 PM CDT
Moon 4:55 PM CDT (9/15) 2:26 AM CDT (9/15)
Length of Visible Light 13h 26m
Length of Day
12h 29m
Waxing Gibbous, 82% of the Moon is Illuminated
Sep 15
Waxing Gibbous
Sep 19
Full
Sep 26
Last Quarter
Oct 4
New
Oct 11
First Quarter

Hourly Weather History & Observations

Time (CDT) Temp. Dew Point Humidity Pressure Visibility Wind Dir Wind Speed Gust Speed Precip Events Conditions
12:53 AM 57.9 °F 55.0 °F 90% 29.90 in 10.0 mi SE 8.1 mph - 0.12 in Rain Light Rain
1:53 AM 57.0 °F 55.0 °F 93% 29.88 in 10.0 mi ESE 9.2 mph - 0.02 in   Overcast
2:53 AM 57.0 °F 55.0 °F 93% 29.87 in 10.0 mi SE 8.1 mph - N/A   Overcast
3:53 AM 57.0 °F 54.0 °F 89% 29.85 in 10.0 mi SSE 10.4 mph - N/A   Overcast
4:53 AM 57.0 °F 54.0 °F 89% 29.84 in 10.0 mi SSE 9.2 mph - N/A   Overcast
5:53 AM 57.0 °F 54.0 °F 89% 29.86 in 10.0 mi SSE 3.5 mph - 0.00 in   Overcast
6:53 AM 57.0 °F 55.9 °F 96% 29.88 in 10.0 mi Calm Calm - N/A   Overcast
7:47 AM 55.4 °F 55.4 °F 100% 29.93 in 1.8 mi North 9.2 mph 19.6 mph 0.06 in Rain Heavy Rain
7:53 AM 55.9 °F 55.9 °F 100% 29.90 in 1.2 mi NNE 8.1 mph - 0.12 in Rain Heavy Rain
8:10 AM 55.4 °F 55.4 °F 100% 29.94 in 3.0 mi North 4.6 mph - 0.07 in Rain Light Rain
8:26 AM 55.4 °F 55.4 °F 100% 29.94 in 3.0 mi North 6.9 mph - 0.09 in Rain Rain
8:34 AM 55.4 °F 55.4 °F 100% 29.93 in 3.0 mi NNE 9.2 mph - 0.11 in Rain Rain
8:53 AM 55.9 °F 55.9 °F 100% 29.94 in 10.0 mi North 10.4 mph - 0.11 in Rain Light Rain
9:11 AM 57.2 °F 55.4 °F 94% 29.97 in 10.0 mi North 10.4 mph - 0.01 in   Overcast
9:51 AM 57.2 °F 55.4 °F 94% 29.98 in 10.0 mi North 16.1 mph - 0.01 in   Overcast
9:53 AM 57.9 °F 55.9 °F 93% 29.97 in 10.0 mi North 16.1 mph - 0.01 in   Overcast
10:53 AM 60.1 °F 55.9 °F 86% 29.99 in 10.0 mi NNE 19.6 mph 27.6 mph N/A   Overcast
11:33 AM 60.8 °F 55.4 °F 82% 30.03 in 10.0 mi NNE 17.3 mph 24.2 mph N/A   Overcast
11:53 AM 61.0 °F 55.9 °F 83% 30.03 in 10.0 mi NNE 15.0 mph 24.2 mph N/A   Overcast
12:53 PM 61.0 °F 55.0 °F 81% 30.06 in 10.0 mi NNE 15.0 mph 21.9 mph N/A   Overcast
1:53 PM 62.1 °F 54.0 °F 75% 30.09 in 10.0 mi North 12.7 mph - N/A   Overcast
2:53 PM 63.0 °F 55.0 °F 75% 30.10 in 10.0 mi North 15.0 mph - N/A   Overcast
3:53 PM 64.0 °F 54.0 °F 70% 30.12 in 10.0 mi NNE 16.1 mph - N/A   Overcast
4:34 PM 64.4 °F 53.6 °F 68% 30.15 in 10.0 mi NNE 17.3 mph - N/A   Overcast
4:53 PM 64.0 °F 54.0 °F 70% 30.14 in 10.0 mi NNE 15.0 mph - N/A   Overcast
5:53 PM 63.0 °F 55.0 °F 75% 30.17 in 10.0 mi NNE 11.5 mph - N/A   Overcast
6:53 PM 62.1 °F 55.0 °F 78% 30.19 in 10.0 mi North 8.1 mph - N/A   Overcast
7:53 PM 59.0 °F 55.9 °F 90% 30.21 in 10.0 mi North 3.5 mph - N/A   Mostly Cloudy
8:53 PM 52.0 °F 51.1 °F 97% 30.25 in 10.0 mi NNW 6.9 mph - N/A   Clear
9:53 PM 51.1 °F 50.0 °F 96% 30.25 in 10.0 mi NNW 6.9 mph - N/A   Clear
10:20 PM 53.6 °F 51.8 °F 94% 30.26 in 10.0 mi North 6.9 mph - N/A   Mostly Cloudy
10:29 PM 51.8 °F 51.8 °F 100% 30.27 in 10.0 mi North 5.8 mph - N/A   Mostly Cloudy
10:53 PM 53.1 °F 52.0 °F 96% 30.27 in 10.0 mi North 6.9 mph - N/A   Clear
11:53 PM 54.0 °F 53.1 °F 97% 30.28 in 10.0 mi NNE 8.1 mph - N/A   Mostly Cloudy